Location: Unspecified
(0.0000°N, 0.0000°E)
Time: 07:08:09
(UTC+00:00)

S-56A Canister/Altair - Pass Details

Date: 03 June 2024
Orbit: 637 x 2489 km, 38.9° (Epoch: 22 June)

Event Time Altitude Azimuth Distance (km) Brightness Sun altitude
Rises 21:30:09 0° 211° (SSW) 4,289 - -47.5°
Reaches altitude 10° 21:32:55 10° 204° (SSW) 3,552 - -48.1°
Maximum altitude 21:41:48 42° 135° (SE) 2,470 - -49.9°
Drops below altitude 10° 21:54:08 10° 69° (ENE) 4,902 - -52.3°
Sets 21:58:38 0° 63° (ENE) 6,052 - -53.2°
